Temp
56 57 54 53 53 52 50 50 51 51 51 51 50 51 53 53 55 52 52 52 53 53 54 54 55 57 57 59 59 58 58 56 54 60 64 65 62 62 64 65 65 66 66
55 53 52 52 52 50 48 47 47 47 49 49 50 51 50 53 55 53 51 53 53 52 53 53 53 56 55 57 59 57 55 55 53 52 57 59 60 62 62 59 63 67 65
53 50 50 50 50 46 45 47 46 45 44 44 45 43 44 50 50 51 51 50 50 49 49 49 48 50 49 51 53 52 54 53 54 53 52 57 58 58 55 58 60 58 63
52 48 46 45 45 45 44 44 43 44 41 42 43 40 39 40 43 47 49 49 48 48 48 45 46 45 46 46 49 49 50 48 50 48 48 49 50 52 53 51 50 53 55
48 46 45 44 45 45 44 41 40 39 39 39 38 37 37 37 38 41 45 45 45 45 46 47 44 43 41 41 44 43 44 45 46 46 44 44 44 45 43 44 44 47 50
46 45 45 43 41 40 41 39 37 35 34 34 33 33 33 35 34 36 40 44 45 46 45 46 48 44 43 40 39 39 39 42 42 41 39 40 42 43 43 41 40 39 39
43 42 40 39 37 36 37 36 35 34 34 33 32 32 31 32 34 35 36 43 43 44 44 45 47 45 38 39 39 39 41 39 35 43 40 39 38 41 41 39 39 39 38
39 38 37 36 35 35 35 34 33 33 32 32 32 31 31 33 33 34 36 44 44 44 44 43 42 41 35 34 36 40 42 44 46 45 43 44 43 43 41 41 40 40 41
36 36 36 36 35 35 34 33 33 32 32 31 33 36 34 33 33 33 39 43 43 44 45 42 41 38 32 32 35 36 38 41 42 39 39 39 39 39 40 42 39 38 36
35 35 35 35 34 33 33 32 33 33 34 36 36 36 36 34 33 33 35 39 39 43 43 43 33 32 31 32 33 35 34 34 35 37 40 43 43 45 39 40 41 36 37
35 35 35 34 33 33 34 35 35 37 36 36 37 38 37 34 34 33 32 36 35 39 38 37 38 31 31 32 32 35 32 32 34 37 36 37 40 42 43 45 45 41 37
34 33 32 33 35 36 35 36 37 37 36 36 35 35 36 37 33 32 32 32 31 35 33 34 34 32 32 32 33 31 32 32 32 31 32 32 33 35 38 40 42 43 44
32 31 32 34 35 37 36 36 34 35 33 33 33 32 32 33 33 31 32 32 31 32 31 31 32 32 32 32 32 32 32 32 30 29 30 31 32 34 35 37 41 43 44
32 33 34 34 34 34 34 32 30 30 31 31 30 29 29 29 27 28 29 31 30 30 29 32 32 31 32 32 32 32 32 31 30 28 29 30 33 33 33 35 36 38 38
34 34 34 35 33 30 29 29 28 26 26 25 26 28 24 23 24 26 27 27 28 28 29 31 30 29 29 29 30 30 31 31 29 29 28 28 30 31 32 34 34 35 33
35 35 35 36 35 35 33 30 28 27 27 27 26 25 27 26 27 27 28 28 29 29 30 28 27 27 26 27 27 27 28 28 28 27 27 27 27 28 29 31 33 33 32
33 34 35 34 35 33 33 33 31 28 28 28 28 27 27 27 28 28 28 29 30 30 28 27 25 25 25 25 25 25 24 26 27 27 26 26 27 27 27 28 30 31 32
32 31 33 32 31 31 31 31 31 29 28 29 30 28 27 28 28 28 28 29 27 28 28 26 24 24 24 24 24 24 24 25 25 25 25 25 25 25 25 26 28 27 29
34 33 33 32 32 32 32 32 32 31 30 29 29 27 27 29 29 28 28 26 24 25 26 24 24 24 23 23 23 23 23 23 23 23 23 24 24 24 23 25 26 26 27
31 31 32 32 31 31 31 30 30 29 29 28 27 23 25 28 26 26 26 25 24 24 24 23 23 23 22 22 22 22 21 21 22 22 22 23 22 22 21 22 23 24 26
32 31 30 32 31 30 30 29 29 28 27 27 26 24 22 25 24 24 25 24 23 23 22 21 21 21 21 21 21 20 19 20 21 20 21 21 20 19 20 21 23 24 26
32 31 31 29 29 27 28 28 27 27 26 25 25 25 23 25 24 23 23 22 23 23 22 21 21 20 21 20 19 19 19 18 19 20 19 17 18 19 19 20 22 24 27
32 30 29 29 28 27 26 27 25 25 24 24 24 23 23 22 22 22 22 21 22 20 21 21 20 20 21 20 20 19 18 19 19 18 16 17 17 18 19 20 23 24 27
30 29 28 26 25 25 25 24 24 23 23 22 22 22 22 21 21 20 21 20 20 19 19 19 19 18 18 18 19 21 21 19 19 18 17 16 17 19 21 22 25 27 30
29 27 26 25 24 23 23 23 22 22 22 21 20 21 21 20 20 19 20 19 17 17 18 18 18 19 17 18 20 18 18 17 17 17 19 19 19 21 23 26 30 31 33
27 26 25 24 23 22 21 21 20 20 19 19 19 19 19 19 18 18 17 16 16 17 17 18 18 17 18 20 19 18 17 16 17 18 20 22 24 28 29 30 32 33 33
MSLP
1008.37 1008.25 1007.85 1007.02 1006.96 1007.11 1007.38 1007.30 1007.15 1006.32 1005.48 1005.53 1005.16 1006.36 1004.96 1005.24 1005.35 1004.98 1004.68 1005.73 1007.92 1007.54 1008.71 1008.62 1009.43 1009.34 1009.34 1009.16 1009.69 1010.07 1010.19 1010.38 1009.83 1008.67 1008.27 1008.38 1008.82 1008.50 1007.95 1007.42 1007.22 1006.33 1006.11
1008.95 1009.07 1008.87 1008.44 1008.37 1007.48 1008.21 1008.61 1009.32 1007.55 1007.46 1007.42 1006.46 1007.25 1006.14 1006.39 1006.72 1006.87 1007.14 1007.54 1008.82 1008.74 1009.06 1008.96 1009.53 1009.69 1009.21 1010.39 1009.82 1010.26 1010.84 1011.13 1010.84 1009.80 1009.28 1008.92 1008.70 1008.47 1007.90 1007.61 1006.89 1006.55 1006.23
1009.54 1009.80 1009.78 1009.66 1009.11 1008.77 1009.36 1009.83 1010.18 1010.09 1009.50 1009.30 1008.84 1008.44 1008.40 1009.27 1009.14 1008.37 1008.42 1009.19 1009.91 1009.97 1009.60 1009.29 1009.98 1010.43 1011.26 1011.35 1011.37 1011.72 1011.53 1011.42 1010.92 1010.50 1009.76 1009.36 1009.01 1008.71 1008.65 1007.73 1007.56 1007.29 1006.87
1010.29 1010.58 1010.81 1011.00 1010.63 1011.07 1010.86 1010.76 1011.21 1011.69 1011.97 1011.32 1011.18 1011.02 1011.07 1010.59 1011.09 1010.19 1010.12 1010.27 1010.58 1011.27 1010.94 1011.02 1011.20 1011.65 1012.40 1012.32 1012.32 1012.38 1012.06 1011.74 1011.78 1011.68 1010.86 1010.08 1009.96 1009.45 1008.98 1008.34 1007.93 1007.85 1007.72
1011.51 1011.54 1011.80 1011.98 1011.92 1012.00 1012.07 1012.45 1012.35 1012.99 1013.52 1013.67 1013.21 1013.10 1012.43 1012.57 1012.61 1012.27 1011.92 1012.24 1012.56 1012.69 1012.02 1011.73 1011.90 1012.83 1013.52 1013.97 1013.49 1013.22 1012.55 1012.43 1012.45 1011.85 1011.55 1010.90 1010.55 1010.04 1009.73 1009.40 1008.88 1008.62 1008.78
1012.59 1012.56 1012.67 1012.93 1013.23 1013.35 1013.94 1013.92 1013.96 1014.40 1015.06 1015.60 1015.15 1014.40 1014.70 1014.65 1014.37 1013.97 1013.51 1013.08 1013.43 1012.88 1012.33 1011.93 1012.60 1013.63 1013.97 1014.59 1013.43 1014.08 1013.79 1013.44 1013.32 1012.13 1012.07 1011.60 1011.24 1010.66 1010.53 1009.95 1009.49 1009.71 1009.18
1013.96 1013.97 1014.07 1014.18 1014.41 1014.81 1015.05 1015.22 1015.17 1015.38 1016.13 1016.30 1016.19 1016.06 1016.57 1016.57 1015.96 1015.17 1014.27 1014.23 1014.28 1013.97 1013.51 1013.51 1013.79 1014.23 1014.79 1014.92 1014.69 1014.12 1013.14 1013.20 1012.88 1012.59 1012.01 1011.86 1011.41 1011.31 1010.80 1009.58 1010.26 1010.08 1009.46
1015.30 1015.42 1015.52 1015.47 1015.60 1015.82 1016.03 1016.28 1016.42 1016.46 1017.01 1017.20 1017.22 1017.44 1017.51 1017.30 1016.63 1015.79 1015.34 1015.20 1014.86 1014.25 1014.14 1014.57 1015.03 1015.32 1016.15 1016.01 1015.15 1014.24 1013.62 1012.90 1012.50 1012.24 1011.71 1011.59 1011.38 1011.07 1010.58 1010.58 1010.26 1009.64 1008.96
1016.85 1016.87 1016.91 1016.80 1016.70 1016.98 1017.02 1017.50 1017.85 1017.74 1018.26 1018.46 1018.20 1018.07 1018.48 1018.59 1017.84 1017.15 1016.19 1015.48 1014.95 1014.66 1014.76 1015.22 1015.90 1016.50 1017.11 1016.82 1015.95 1014.57 1013.59 1012.77 1012.57 1012.63 1012.19 1011.87 1010.99 1010.72 1010.68 1010.21 1009.71 1008.88 1007.79
1018.26 1018.29 1018.40 1018.32 1018.21 1018.24 1018.51 1018.72 1019.16 1019.02 1019.00 1019.02 1019.09 1019.31 1019.37 1019.67 1019.13 1018.39 1017.61 1016.85 1015.99 1015.65 1015.73 1016.05 1016.71 1017.10 1016.84 1016.21 1015.63 1014.82 1013.70 1013.75 1013.48 1012.50 1011.60 1010.83 1010.35 1009.82 1009.41 1009.42 1008.87 1008.13 1007.17
1019.55 1019.53 1019.56 1019.62 1019.68 1019.68 1019.79 1019.57 1019.82 1019.44 1019.69 1019.64 1019.50 1019.68 1020.04 1020.39 1019.93 1019.59 1019.15 1018.31 1017.97 1016.84 1016.73 1016.77 1016.89 1017.07 1016.61 1016.49 1016.12 1015.22 1015.33 1014.88 1013.67 1012.74 1012.59 1011.88 1010.92 1010.01 1009.31 1008.49 1007.79 1007.21 1006.44
1020.60 1020.66 1020.72 1020.75 1020.68 1020.55 1020.40 1020.31 1020.12 1020.17 1020.13 1020.29 1020.26 1020.26 1020.69 1020.62 1020.82 1020.45 1020.01 1019.82 1019.48 1018.23 1018.02 1017.86 1017.62 1017.44 1016.96 1016.56 1016.21 1016.00 1015.43 1014.61 1014.14 1013.66 1012.82 1012.03 1011.25 1010.33 1009.40 1008.53 1007.80 1006.63 1005.84
1021.61 1021.66 1021.57 1021.51 1021.65 1021.38 1021.30 1021.05 1021.26 1021.13 1021.40 1021.33 1021.21 1021.05 1021.33 1021.62 1021.48 1020.98 1020.55 1020.07 1019.81 1019.25 1019.22 1018.66 1018.11 1017.62 1016.99 1016.48 1016.24 1015.56 1014.99 1014.61 1014.26 1013.42 1012.70 1011.93 1011.38 1010.46 1009.57 1008.36 1007.23 1006.11 1005.31
1022.37 1022.33 1022.34 1022.10 1022.30 1022.64 1022.83 1022.91 1023.19 1022.96 1022.60 1022.48 1022.37 1022.58 1022.56 1022.48 1022.48 1021.93 1021.40 1020.61 1020.43 1019.70 1019.33 1018.68 1018.01 1017.50 1016.81 1016.48 1016.11 1015.60 1015.12 1014.82 1014.11 1013.43 1012.61 1011.91 1011.06 1009.93 1008.94 1008.10 1007.08 1005.83 1004.65
1022.98 1023.05 1022.99 1022.91 1023.35 1024.02 1024.30 1024.46 1024.76 1025.25 1025.11 1024.64 1024.26 1023.70 1023.76 1023.65 1023.77 1023.15 1022.43 1021.51 1020.81 1020.11 1019.17 1018.51 1018.24 1017.61 1017.05 1016.59 1016.11 1015.48 1015.07 1014.51 1014.08 1013.62 1012.86 1011.75 1010.81 1009.89 1008.98 1008.09 1007.10 1005.90 1005.00
1023.54 1023.73 1023.63 1023.54 1023.62 1023.72 1024.31 1025.11 1025.84 1025.92 1025.74 1025.54 1025.63 1025.45 1024.98 1024.67 1023.92 1023.35 1022.24 1021.50 1020.99 1020.28 1019.25 1019.09 1018.70 1018.06 1017.46 1016.99 1016.39 1015.83 1015.34 1014.94 1014.46 1013.94 1012.92 1012.22 1011.25 1010.28 1009.00 1008.00 1007.05 1005.91 1004.62
1024.52 1024.57 1024.63 1024.55 1024.47 1024.55 1024.73 1024.78 1024.97 1025.87 1025.78 1025.75 1025.78 1025.72 1025.18 1024.47 1023.87 1023.18 1022.51 1021.82 1021.28 1020.53 1019.88 1019.45 1019.21 1018.66 1018.24 1017.99 1017.49 1016.78 1015.89 1015.31 1014.83 1013.81 1013.21 1012.10 1011.26 1010.34 1009.24 1008.07 1006.94 1005.84 1004.57
1025.77 1025.78 1025.73 1025.77 1025.75 1025.67 1025.68 1025.75 1025.84 1025.85 1025.59 1025.42 1025.38 1025.41 1025.15 1024.32 1023.90 1023.55 1023.08 1022.18 1021.34 1020.75 1020.69 1020.45 1020.30 1019.86 1019.32 1018.64 1017.86 1017.11 1016.38 1015.51 1014.72 1014.14 1013.20 1012.25 1011.39 1010.59 1009.32 1008.19 1007.08 1005.96 1004.68
1026.42 1026.62 1026.73 1026.80 1026.67 1026.55 1026.51 1026.49 1026.35 1026.21 1026.05 1025.91 1025.81 1025.79 1025.66 1024.72 1024.27 1023.96 1023.35 1022.83 1022.45 1022.10 1021.74 1021.34 1020.99 1020.34 1019.71 1019.01 1018.22 1017.55 1016.99 1015.87 1015.11 1014.19 1013.26 1012.50 1011.64 1010.67 1009.38 1008.34 1007.11 1005.90 1004.76
1027.64 1027.67 1027.46 1027.40 1027.45 1027.46 1027.51 1027.36 1027.15 1027.08 1027.00 1026.82 1026.76 1026.99 1026.49 1025.16 1024.49 1024.11 1024.01 1024.02 1023.63 1022.97 1022.35 1021.97 1021.49 1020.95 1020.24 1019.48 1018.76 1017.93 1016.93 1016.09 1015.19 1014.32 1013.43 1012.44 1011.56 1010.68 1009.47 1008.23 1006.98 1005.72 1004.24
1028.39 1028.57 1028.48 1028.42 1028.52 1028.60 1028.51 1028.35 1028.33 1028.32 1028.07 1027.77 1027.61 1027.94 1027.49 1026.38 1025.98 1025.46 1025.01 1024.75 1024.40 1023.75 1023.23 1022.81 1022.19 1021.33 1020.60 1019.83 1019.04 1018.26 1017.42 1016.39 1015.42 1014.44 1013.33 1012.35 1011.57 1010.38 1009.32 1008.12 1006.72 1005.31 1003.95
1029.21 1029.33 1029.51 1029.68 1029.89 1030.01 1029.86 1029.87 1029.66 1029.38 1029.16 1028.92 1028.63 1028.36 1028.06 1027.52 1027.06 1026.59 1026.05 1025.79 1025.26 1024.77 1024.27 1023.49 1022.56 1021.79 1020.99 1020.26 1019.49 1018.52 1017.42 1016.37 1015.26 1014.25 1013.24 1012.38 1011.36 1010.15 1009.01 1007.66 1006.25 1004.76 1003.23
1030.20 1030.40 1030.63 1030.78 1030.83 1031.08 1031.08 1030.93 1030.82 1030.47 1030.26 1030.00 1029.81 1029.47 1029.06 1028.73 1028.13 1027.62 1027.18 1026.69 1025.97 1025.40 1024.68 1023.77 1022.88 1021.93 1021.26 1020.60 1019.73 1018.75 1017.48 1016.24 1015.34 1014.60 1013.29 1011.94 1010.82 1009.76 1008.57 1007.12 1005.58 1004.11 1002.69
1031.33 1031.42 1031.59 1032.13 1032.33 1032.24 1031.98 1031.83 1031.61 1031.42 1031.37 1031.14 1030.90 1030.34 1030.13 1029.91 1029.28 1028.65 1027.88 1027.41 1026.67 1025.88 1024.97 1024.01 1023.11 1022.26 1021.31 1020.34 1019.26 1018.10 1017.19 1016.43 1015.28 1014.03 1013.14 1011.79 1010.28 1008.96 1007.70 1006.30 1004.83 1003.37 1002.08
1032.55 1032.92 1033.11 1033.29 1033.33 1033.17 1032.99 1032.89 1032.82 1032.71 1032.56 1032.06 1031.96 1031.50 1031.25 1030.82 1030.13 1029.39 1028.63 1028.02 1027.31 1026.19 1025.08 1024.12 1023.09 1022.08 1021.14 1019.85 1018.59 1017.95 1016.75 1015.61 1014.58 1013.43 1012.06 1010.78 1009.36 1007.91 1006.51 1005.13 1003.72 1002.54 1001.61
1033.92 1034.14 1034.30 1034.33 1034.30 1034.22 1034.26 1034.14 1034.08 1033.87 1033.49 1033.24 1032.90 1032.62 1032.18 1031.66 1031.04 1030.23 1029.51 1028.73 1027.64 1026.48 1025.46 1024.28 1023.18 1022.23 1020.79 1019.42 1018.58 1017.38 1016.08 1014.79 1013.38 1012.04 1010.73 1009.28 1007.89 1006.34 1005.10 1004.03 1002.99 1002.25 1001.63
Wind_Speed
10 10 8 9 9 14 14 13 11 11 13 12 14 12 12 12 12 12 16 16 9 12 8 8 7 6 5 5 3 4 2 3 7 8 8 8 10 10 9 8 10 8 2
7 9 11 12 11 14 14 16 14 16 16 13 12 10 16 14 14 14 12 13 10 11 9 11 10 7 10 7 4 4 1 4 5 10 9 8 9 10 10 11 9 9 9
8 8 8 9 12 15 16 16 14 16 17 16 17 17 17 15 12 12 14 13 13 13 12 13 12 11 9 8 7 7 6 6 7 8 9 8 9 9 11 10 10 11 11
8 10 9 10 12 12 13 14 14 15 15 15 18 16 17 17 16 16 14 12 13 12 11 12 12 13 10 9 7 7 8 7 8 7 8 8 9 9 9 10 10 9 11
8 10 10 9 11 13 15 16 17 16 14 15 16 16 16 15 13 14 13 12 10 9 11 11 12 10 8 7 8 10 10 9 9 7 9 8 8 9 9 7 8 10 12
9 10 10 13 13 14 14 14 14 15 14 13 15 17 16 11 24 22 15 9 9 9 9 11 8 10 11 14 14 14 12 11 10 9 8 9 12 10 8 7 8 10 11
11 12 13 13 13 12 12 12 12 12 10 13 15 15 15 13 22 21 20 7 6 9 10 10 9 8 16 15 15 15 12 9 11 9 11 10 11 10 10 9 10 12 12
11 11 11 11 11 11 12 13 13 13 13 11 13 14 14 15 25 26 17 7 7 9 10 12 11 12 16 16 15 13 13 12 12 10 14 14 11 11 11 12 14 15 13
9 9 9 9 10 10 12 12 12 12 11 11 11 12 14 15 25 26 15 10 10 11 10 11 10 11 17 18 14 13 13 11 14 21 20 21 21 21 21 12 11 12 12
10 10 11 11 12 13 12 12 10 9 9 9 11 12 15 14 23 25 21 11 11 9 10 9 17 17 20 19 15 14 13 15 16 16 15 15 15 15 14 13 10 12 11
10 11 12 14 14 14 12 11 9 11 10 10 11 11 12 15 17 22 22 12 11 9 9 9 10 22 20 19 17 11 14 15 15 13 12 11 13 12 10 11 11 11 11
13 15 14 12 9 9 11 11 10 10 11 11 10 10 10 12 19 20 20 17 17 10 10 9 11 19 19 18 13 17 17 12 8 8 9 9 10 11 12 13 16 15 12
14 12 11 12 11 13 12 13 9 11 9 8 8 8 9 10 11 21 20 19 18 10 9 12 14 16 16 12 16 15 12 8 8 9 9 10 10 11 13 14 16 17 17
11 11 12 13 14 13 10 12 11 10 9 10 10 10 9 10 12 12 12 11 15 11 12 9 9 11 11 10 10 10 9 8 9 10 10 11 11 10 11 10 12 12 12
11 11 10 11 13 12 14 11 10 12 12 9 10 9 9 10 11 15 14 10 10 13 13 8 8 9 10 10 10 10 10 10 10 10 11 11 12 12 12 11 12 12 12
10 9 8 8 8 7 7 8 14 13 16 17 18 12 8 13 18 20 22 19 18 19 8 9 9 10 11 12 12 12 11 12 10 11 10 11 11 12 12 12 12 12 11
11 10 9 9 9 9 8 9 8 5 10 15 16 17 18 18 21 23 23 18 17 16 10 10 10 11 12 11 11 11 12 11 14 11 11 11 12 12 14 12 12 12 12
12 13 9 8 8 8 8 8 7 7 7 8 14 17 21 21 20 21 22 15 11 13 11 11 11 11 11 11 11 11 12 12 11 12 12 12 11 12 13 12 12 13 13
10 9 9 8 9 9 8 8 8 9 9 9 10 14 16 19 18 19 21 12 12 12 11 11 11 11 11 11 12 12 13 12 13 12 12 12 12 12 13 13 13 18 17
10 12 10 9 9 9 8 9 9 10 10 10 10 12 13 13 12 12 12 11 11 12 11 12 12 11 11 11 12 11 12 12 12 12 12 12 12 12 13 14 13 14 14
8 9 12 10 9 9 9 10 9 8 9 10 10 12 17 12 12 13 12 12 12 13 12 12 12 12 11 11 12 12 13 13 13 13 13 13 13 14 13 13 13 13 13
9 10 10 9 9 10 10 9 9 10 10 10 11 12 16 11 12 12 13 13 12 13 11 12 11 12 11 12 13 13 13 14 13 14 14 14 14 13 13 13 13 13 12
10 10 10 9 9 10 9 9 9 10 11 12 12 11 12 12 12 13 13 12 13 12 12 12 12 11 11 12 12 13 13 14 14 15 16 16 14 13 12 13 13 13 12
10 10 11 9 8 8 9 10 10 12 11 11 11 12 12 12 12 13 13 12 13 13 12 12 12 16 15 14 13 12 13 15 14 15 19 16 15 15 13 13 13 15 12
10 9 9 9 9 9 10 11 11 11 10 11 11 11 12 12 13 13 13 13 13 14 15 15 12 17 19 23 19 23 22 23 19 20 13 16 17 19 15 13 13 11 7
10 10 9 8 9 10 10 10 10 10 11 10 11 11 12 12 13 13 13 15 14 14 18 13 16 24 24 18 23 26 25 25 21 23 15 12 12 12 11 13 12 6 6
Wind_Direction
357 8 10 40 59 44 30 30 23 50 52 46 48 23 49 56 61 76 83 89 99 92 100 86 78 50 44 71 81 67 7 338 281 287 312 334 317 310 314 340 318 327 32
26 15 19 45 48 61 52 41 16 37 47 54 63 57 51 36 54 60 69 86 92 92 97 83 64 51 46 27 23 48 64 308 292 296 305 301 301 311 332 336 324 334 329
47 48 43 43 65 62 57 51 44 39 39 39 46 41 46 32 39 55 63 62 51 52 61 64 54 50 44 20 13 1 348 335 315 303 301 316 317 336 331 325 334 335 315
61 69 57 50 56 73 70 75 57 50 44 47 49 45 38 43 25 32 43 55 59 48 61 59 52 46 28 22 7 10 350 336 317 313 312 314 324 328 312 333 332 332 324
53 72 72 76 70 68 66 64 62 55 45 39 48 46 44 40 27 24 47 45 48 55 51 59 61 62 52 34 9 359 346 337 320 308 307 313 314 314 328 327 315 321 308
61 66 65 64 64 64 67 73 71 68 60 51 48 46 39 33 21 15 16 42 36 36 47 40 43 50 34 359 18 345 313 304 306 319 309 305 301 316 313 316 322 310 308
58 62 67 71 70 61 60 56 65 66 58 58 52 49 46 30 23 13 356 48 32 31 36 37 7 64 32 359 343 312 307 260 239 281 291 293 303 312 312 322 296 291 286
63 65 70 74 74 72 74 68 62 63 51 50 57 46 38 29 22 13 347 45 43 44 43 45 21 13 22 354 335 328 327 323 317 332 333 318 307 303 306 294 292 284 279
47 57 59 64 69 67 65 65 62 65 64 55 49 54 50 33 28 16 2 24 27 37 32 52 26 9 5 351 330 330 324 330 344 333 317 308 302 290 270 277 277 276 278
50 54 57 57 63 63 65 70 71 75 83 72 74 62 42 49 30 26 9 21 18 19 24 20 66 21 355 353 343 330 344 339 328 318 310 310 297 291 262 244 266 268 278
61 60 57 56 57 62 65 65 63 66 68 66 62 58 76 42 42 31 26 22 1 6 11 1 360 360 349 346 336 353 335 321 311 319 325 314 311 307 300 290 289 273 265
67 65 64 61 58 65 65 68 65 64 57 57 55 56 40 31 37 22 24 22 8 2 7 358 352 344 345 338 340 337 327 317 331 314 311 309 311 313 315 312 305 295 285
74 71 70 70 57 52 50 54 47 52 48 51 46 42 35 28 15 15 8 10 11 0 357 336 338 347 343 344 342 339 333 338 328 322 318 320 317 307 300 295 299 296 292
76 72 64 59 61 59 60 53 39 30 38 37 39 31 23 20 13 5 356 357 0 359 349 324 344 352 348 346 340 344 340 335 333 323 326 316 309 313 310 307 305 306 291
76 77 76 74 73 70 57 45 60 51 43 40 21 30 21 14 4 0 356 354 357 344 333 347 351 353 350 349 347 347 343 342 336 335 322 320 321 317 314 314 310 303 299
78 65 63 67 70 79 87 92 73 71 62 55 46 33 17 15 7 5 4 359 0 343 350 359 352 354 351 346 344 340 338 337 334 323 320 318 313 313 313 312 307 306 301
73 69 63 55 54 50 43 36 49 110 90 65 38 31 16 15 12 9 3 355 4 356 6 1 355 351 345 340 335 332 331 330 324 322 322 318 319 314 317 311 309 308 306
76 59 65 60 56 52 45 42 40 30 23 23 34 22 11 10 12 9 5 2 5 11 3 355 347 341 334 330 329 329 325 325 325 322 318 318 319 315 313 311 311 308 307
68 68 66 63 52 46 45 39 33 31 27 22 18 15 6 1 11 12 13 15 3 356 350 345 341 337 333 331 329 325 321 321 320 319 319 317 317 316 311 308 305 306 305
68 62 61 59 51 46 41 37 34 28 23 21 23 14 360 0 7 8 8 6 355 350 348 343 339 332 330 327 324 322 324 321 320 319 315 315 316 312 308 307 304 303 301
73 65 53 53 47 43 40 36 32 28 23 20 19 25 2 5 5 3 360 359 351 346 345 338 331 330 328 327 327 325 319 316 316 314 314 316 315 310 306 300 298 298 294
66 62 58 55 52 41 37 32 28 26 24 19 14 14 8 9 5 1 357 354 346 346 338 332 329 328 328 330 326 319 317 316 315 316 316 312 308 304 302 299 298 295 296
64 61 59 53 49 44 38 39 33 28 24 20 13 9 7 4 3 359 352 347 344 339 333 328 328 328 329 326 321 317 312 316 321 317 308 307 305 300 298 294 294 297 298
65 62 60 62 42 45 36 36 32 31 23 17 12 9 6 0 358 352 351 343 339 334 328 331 329 329 329 325 316 310 326 318 309 307 308 298 294 296 292 289 289 292 294
61 62 59 55 44 40 37 34 27 23 19 18 12 7 1 359 358 350 350 342 337 332 334 332 328 334 333 323 331 334 322 320 315 305 299 294 287 285 280 281 291 297 313
63 59 56 51 46 39 33 26 26 17 19 14 13 4 359 359 356 347 348 342 337 337 336 334 335 338 331 339 339 330 331 326 322 317 307 290 282 287 291 294 301 319 332